Hourly Data Report for October 05, 2017

All times are specified in Local Standard Time (LST). Add 1 hour to adjust for Daylight Saving Time where and when it is observed.

ABBOTSFORD A
BRITISH COLUMBIA

49°01'31.000" N
122°21'36.000" W
59.10 m
1100031
71108
YXX

Download Data

Hourly Data (October 2017)
Hourly Data Report for October 5, 2017
Temp Definition
°C
Dew Point Temp Definition
°C
Rel Hum Definition
%
Wind Dir Definition
10's deg

Wind Spd Definition
km/h
Visibility Definition
km
Stn Press Definition
kPa
Hmdx Definition


Wind Chill Definition


Weather Definition


TIME
00:00 Legend Double Dagger 6.8 4.7 87 34 4 24.1 101.48     LegendNANA
01:00 Legend Double Dagger 6.3 4.5 89 36 3 24.1 101.50     Mainly Clear
02:00 Legend Double Dagger 5.3 3.7 90   0 24.1 101.52     LegendNANA
03:00 Legend Double Dagger 6.0 4.0 87 35 4 24.1 101.53     LegendNANA
04:00 Legend Double Dagger 5.8 3.9 87 32 4 24.1 101.54     Mainly Clear
05:00 Legend Double Dagger 5.1 3.6 90 2 4 24.1 101.53     LegendNANA
06:00 Legend Double Dagger 5.3 2.8 84 1 10 48.3 101.53     LegendNANA
07:00 Legend Double Dagger 8.1 4.5 78 2 16 48.3 101.56     Mainly Clear
08:00 Legend Double Dagger 9.6 4.6 71 6 3 48.3 101.59     LegendNANA
09:00 Legend Double Dagger 11.6 5.1 64 36 3 48.3 101.60     LegendNANA
10:00 Legend Double Dagger 14.0 5.4 56 36 1 48.3 101.56     Clear
11:00 Legend Double Dagger 16.0 4.6 46 32 3 48.3 101.53     LegendNANA
12:00 Legend Double Dagger 18.1 3.8 39 36 2 48.3 101.48     LegendNANA
13:00 Legend Double Dagger 19.3 6.7 43 17 10 48.3 101.41     Clear
14:00 Legend Double Dagger 19.8 7.3 44 21 5 48.3 101.36     LegendNANA
15:00 Legend Double Dagger 19.9 6.7 42 22 10 48.3 101.31     LegendNANA
16:00 Legend Double Dagger 19.6 7.4 45 20 12 48.3 101.26     Clear
17:00 Legend Double Dagger 17.7 7.2 50 23 12 48.3 101.25     LegendNANA
18:00 Legend Double Dagger 14.2 6.7 60 22 10 48.3 101.29     LegendNANA
19:00 Legend Double Dagger 9.6 5.7 76 16 9 24.1 101.32     Clear
20:00 Legend Double Dagger 10.1 6.3 77 27 3 24.1 101.33     LegendNANA
21:00 Legend Double Dagger 8.8 6.0 82 2 4 24.1 101.31     LegendNANA
22:00 Legend Double Dagger 7.4 4.9 84   0 24.1 101.28     Mainly Clear
23:00 Legend Double Dagger 7.0 4.5 84 4 3 24.1 101.29     LegendNANA

Notes on Data Quality.

Legend

  • E = Estimated
  • M = Missing
  • NA = Not Available
  • ‡ = Partner data that is not subject to review by the National Climate Archives
Date modified: